TimePDT,TemperatureF,Dew PointF,Humidity,Sea Level PressureIn,VisibilityMPH,Wind Direction,Wind SpeedMPH,Gust SpeedMPH,PrecipitationIn,Events,Conditions,WindDirDegrees,DateUTC
12:53 AM,69.1,60.1,73,29.81,5.0,SSW,3.5,-,N/A,,Haze,210,2013-07-05 07:53:00
1:53 AM,69.1,60.1,73,29.80,5.0,Calm,Calm,-,N/A,,Haze,0,2013-07-05 08:53:00
2:53 AM,70.0,60.1,71,29.79,6.0,South,3.5,-,N/A,,Haze,170,2013-07-05 09:53:00
3:53 AM,69.1,60.1,73,29.78,8.0,Calm,Calm,-,N/A,,Overcast,0,2013-07-05 10:53:00
4:53 AM,69.1,60.1,73,29.78,8.0,Calm,Calm,-,N/A,,Overcast,0,2013-07-05 11:53:00
5:53 AM,69.1,60.1,73,29.79,10.0,Calm,Calm,-,N/A,,Overcast,0,2013-07-05 12:53:00
6:53 AM,69.1,60.1,73,29.82,10.0,Calm,Calm,-,N/A,,Overcast,0,2013-07-05 13:53:00
7:53 AM,70.0,60.1,71,29.83,9.0,Calm,Calm,-,N/A,,Overcast,0,2013-07-05 14:53:00
8:29 AM,71.6,60.8,69,29.84,9.0,Calm,Calm,-,N/A,,Overcast,0,2013-07-05 15:29:00
8:53 AM,73.0,61.0,66,29.83,9.0,South,3.5,-,N/A,,Mostly Cloudy,180,2013-07-05 15:53:00
9:07 AM,73.4,60.8,65,29.83,9.0,Variable,3.5,-,N/A,,Partly Cloudy,0,2013-07-05 16:07:00
9:53 AM,75.9,60.1,58,29.83,10.0,SSW,5.8,-,N/A,,Clear,200,2013-07-05 16:53:00
10:53 AM,80.1,59.0,48,29.82,10.0,Calm,Calm,-,N/A,,Clear,0,2013-07-05 17:53:00
11:53 AM,81.0,61.0,50,29.82,9.0,SSW,9.2,17.3,N/A,,Clear,210,2013-07-05 18:53:00
12:53 PM,79.0,61.0,54,29.83,10.0,SW,9.2,-,N/A,,Clear,220,2013-07-05 19:53:00
1:53 PM,75.9,60.1,58,29.81,10.0,Calm,Calm,-,N/A,,Clear,0,2013-07-05 20:53:00
2:53 PM,79.0,61.0,54,29.80,10.0,SW,8.1,-,N/A,,Clear,220,2013-07-05 21:53:00
3:53 PM,82.0,61.0,49,29.77,10.0,Variable,3.5,-,N/A,,Clear,0,2013-07-05 22:53:00
4:53 PM,81.0,61.0,50,29.76,10.0,SW,9.2,-,N/A,,Clear,220,2013-07-05 23:53:00
5:53 PM,77.0,61.0,58,29.76,10.0,SW,9.2,-,N/A,,Clear,230,2013-07-06 00:53:00
6:53 PM,75.0,61.0,62,29.77,10.0,SSW,8.1,-,N/A,,Clear,200,2013-07-06 01:53:00
7:53 PM,72.0,61.0,68,29.78,10.0,South,6.9,-,N/A,,Clear,180,2013-07-06 02:53:00
8:53 PM,70.0,61.0,73,29.80,10.0,SSW,5.8,-,N/A,,Clear,210,2013-07-06 03:53:00
9:23 PM,69.8,60.8,73,29.81,10.0,SW,4.6,-,N/A,,Mostly Cloudy,220,2013-07-06 04:23:00
9:53 PM,69.1,61.0,75,29.82,10.0,SSW,3.5,-,N/A,,Overcast,200,2013-07-06 04:53:00
10:53 PM,69.1,61.0,75,29.82,10.0,SW,4.6,-,N/A,,Overcast,230,2013-07-06 05:53:00
11:53 PM,70.0,61.0,73,29.82,10.0,Calm,Calm,-,N/A,,Overcast,0,2013-07-06 06:53:00